Flag for U.S.A. Weather past 2 weeks in Lowell, Massachusetts, U.S.A.

Now
41 °F

Sunny.


Feels Like: 39 °F
Forecast: 23 / 41 °F
Wind: 3 mph from North

Location: Hanscom Field

Current Time: Mar 29, 2015 at 5:11:43 PM

Latest Report: Mar 29, 2015 at 3:56 PM


Visibility: 10 mi

Pressure: 30.14 "Hg

Humidity: 18%

Dew point: 0 °F

Location of LowellLocation

Historic Weather in Lowell — Graph

°F

Lowell temperature yesterday

Maximum temperature yesterday: 35 °F (at 2:56 AM)
Minimum temperature yesterday: 29 °F (at 11:56 PM)
Average temperature yesterday: 33 °F

Past Weeks' High & Low Weather Summary

 TemperatureHumidityPressure
High49 °F (Mar 26, 12:56 PM)100% (Mar 14, 3:56 PM)30.44 "Hg (Mar 14, 3:56 PM)
Low13 °F (Mar 20, 5:56 AM)18% (Mar 29, 3:56 PM)29.41 "Hg (Mar 17, 3:56 PM)
Average31 °F63%30.00 "Hg
* Reported Mar 14 3:56 PM — Mar 29 3:56 PM, Lowell, Weather by CustomWeather, © 2015

Note: Actual official high and low records may vary slightly from our data, if they occured in-between our weather recording intervals... More about our weather records

Advertising

Lowell weather history for previous 24 hours

 ConditionsComfort  
Time TempWeatherWind HumidityBarometerVisibility
3:56 PM
Sun, Mar 29
41 °FSunny.3 mph18%30.14 "Hg10 mi
2:56 PM41 °FSunny.10 mph20%30.17 "Hg10 mi
1:56 PM38 °FSunny.5 mph22%30.19 "Hg10 mi
12:56 PM36 °FSunny.9 mph20%30.21 "Hg10 mi
11:56 AM34 °FSunny.10 mph25%30.22 "Hg10 mi
10:56 AM32 °FSunny.9 mph32%30.24 "Hg10 mi
9:56 AM30 °FSunny.3 mph34%30.25 "Hg10 mi
8:56 AM27 °FSunny.8 mph42%30.24 "Hg10 mi
7:56 AM24 °FSunny.8 mph50%30.22 "Hg10 mi
6:56 AM21 °FClear.5 mph55%30.20 "Hg10 mi
5:56 AM24 °FOvercast.7 mph50%30.17 "Hg10 mi
4:56 AM22 °FPassing clouds.5 mph55%30.14 "Hg10 mi
3:56 AM24 °FMostly cloudy.7 mph48%30.13 "Hg10 mi
2:56 AM25 °FOvercast.13 mph46%30.11 "Hg10 mi
1:56 AM25 °FOvercast.12 mph48%30.10 "Hg10 mi
12:56 AM27 °FOvercast.13 mph53%30.09 "Hg10 mi
11:56 PM
Sat, Mar 28
29 °FOvercast.16 mph64%30.07 "Hg10 mi
10:56 PM31 °FOvercast.12 mph67%30.04 "Hg10 mi
9:56 PM31 °FOvercast.8 mph82%30.01 "Hg10 mi
8:56 PM31 °FMostly cloudy.5 mph89%29.99 "Hg9 mi
7:56 PM32 °FLight snow. Ice fog.5 mph92%29.95 "Hg4 mi
7:02 PM32 °FLight snow. Ice fog.8 mph96%29.87 "Hg2 mi
6:56 PM32 °FLight snow. Ice fog.9 mph96%29.91 "Hg1 mi
5:56 PM33 °FLight snow. Fog.5 mph92%29.88 "Hg2 mi
Weather by CustomWeather, © 2015

See weather overviewHow to use our weather pages